This is the latest recevied weather packets stored in our database for station/object KC5DAQ-27. If no packets are shown the sender has not sent any weather packets the latest 10 day(s).
| Time | Temp. | Humidity | Pressure | Rain* | Wind** | Luminosity | Snow |
|---|---|---|---|---|---|---|---|
| 1777642752 | 16.67° C | 97% | 1003.5 hPa | 1.52 mm | - | 25 W/m² | - |
| 1777642691 | 16.67° C | 97% | 1003.8 hPa | 1.52 mm | - | 21 W/m² | - |
| 1777642629 | 16.67° C | 97% | 1004 hPa | 1.52 mm | - | 12 W/m² | - |
| 1777642568 | 16.67° C | 97% | 1004.2 hPa | 1.52 mm | - | 11 W/m² | - |
| 1777642505 | 16.67° C | 97% | 1004.1 hPa | 1.52 mm | - | 11 W/m² | - |
| 1777642444 | 16.67° C | 97% | 1004.2 hPa | 1.27 mm | - | 11 W/m² | - |
| 1777642383 | 16.67° C | 97% | 1004 hPa | 1.27 mm | - | 11 W/m² | - |
| 1777642323 | 16.67° C | 97% | 1004 hPa | 1.27 mm | - | 11 W/m² | - |
| 1777642263 | 16.67° C | 97% | 1003.9 hPa | 1.27 mm | - | 12 W/m² | - |
| 1777642205 | 16.67° C | 97% | 1003.9 hPa | 1.27 mm | - | 12 W/m² | - |
| 1777642143 | 16.67° C | 97% | 1003.9 hPa | 1.27 mm | - | 12 W/m² | - |
| 1777642082 | 16.67° C | 97% | 1003.8 hPa | 1.52 mm | - | 12 W/m² | - |
| 1777642023 | 16.67° C | 97% | 1004 hPa | 1.52 mm | - | 12 W/m² | - |
| 1777641963 | 16.67° C | 97% | 1004.2 hPa | 1.27 mm | - | 12 W/m² | - |
| 1777641904 | 16.67° C | 97% | 1004.4 hPa | 1.27 mm | - | 12 W/m² | - |
| 1777641843 | 16.67° C | 97% | 1004.5 hPa | 1.27 mm | - | 12 W/m² | - |
| 1777641782 | 16.67° C | 97% | 1004.7 hPa | 1.27 mm | - | 11 W/m² | - |
| 1777641723 | 16.67° C | 97% | 1004.7 hPa | 1.27 mm | - | 11 W/m² | - |
| 1777641662 | 16.67° C | 97% | 1004.8 hPa | 1.27 mm | - | 11 W/m² | - |
| 1777641604 | 16.67° C | 97% | 1004.9 hPa | 1.27 mm | - | 7 W/m² | - |
| 1777641543 | 16.67° C | 97% | 1004.8 hPa | 1.27 mm | - | 5 W/m² | - |
| 1777641483 | 16.67° C | 97% | 1004.7 hPa | 1.27 mm | - | 5 W/m² | - |
| 1777641423 | 16.67° C | 97% | 1004.7 hPa | 1.27 mm | - | 0 W/m² | - |
| 1777641363 | 16.67° C | 97% | 1004.6 hPa | 1.27 mm | - | 0 W/m² | - |
| 1777641302 | 16.67° C | 97% | 1004.5 hPa | 1.02 mm | - | 0 W/m² | - |
* Rain latest hour (hover to see other rain measurements)
** Current wind speed in m/s (hover to see current wind gust speed)